#timestamp,LO_Frequency,Hit,StdDev 
1592406015.5,286047001.5,N
1592406035.3,286047003.7,Y
1592406055.2,286047001.5,P
1592406075.0,286047002.1,P
1592406075.9,286047002.1,P
1592406095.8,286047002.8,Y
1592406115.6,286046998.5,P
1592406135.4,286046998.7,N
1592406155.3,286046999.2,N
1592406175.1,286046997.4,N
1592406195.8,286046997.8,N
1592406215.7,286046999.5,N
1592406235.5,286046996.5,N
1592406255.4,286046998.3,N
1592406275.2,286047000.3,N
1592406295.0,286046998.6,N
1592406295.9,286046998.6,N
1592406315.8,286046997.4,N
1592406335.6,286046998.2,N
1592406355.5,286046998.1,N
1592406375.3,286046999.4,N
1592406395.1,286046999.3,N
1592406415.9,286046996.7,N
1592406435.7,286046998.1,N
1592406455.5,286046996.6,N
1592406475.4,286046999.1,N
1592406495.2,286046997.6,N
1592406515.1,286046996.2,Y
1592406516.0,286046996.2,P
1592406535.8,286046998.0,N
1592406555.6,286046999.5,N
1592406575.5,286046996.8,N
1592406595.3,286046997.8,N
1592406615.2,286046995.7,Y
1592406635.9,286046996.7,P
1592406655.7,286046996.8,P
1592406675.6,286046996.7,P
1592406695.4,286046997.1,Y
1592406715.3,286047000.5,P
1592406735.1,286047002.3,N
1592406736.0,286047002.3,N
1592406755.8,286047000.7,N
1592406775.7,286046999.7,N
1592406795.5,286046998.6,N
1592406815.3,286047001.1,N
1592406835.2,286046998.1,N
1592406855.0,286047000.2,N
1592406855.9,286047000.2,N
1592406875.8,286047000.4,N
1592406895.6,286047000.5,N
1592406915.4,286047000.9,N
1592406935.3,286046999.0,N
1592406955.1,286046998.8,N
1592406975.9,286046999.3,N
1592406995.7,286046996.6,N
1592407015.5,286046996.5,N
1592407035.4,286046999.6,N
1592407055.2,286046999.5,N
1592407075.0,286046998.5,N
1592407076.0,286046998.5,N
1592407095.8,286046999.3,N
1592407115.6,286046998.1,N
1592407135.5,286047002.0,N
1592407155.3,286047004.3,N
1592407175.1,286047001.7,N
1592407195.9,286047002.1,N
1592407215.7,286047003.0,N
1592407235.6,286047007.2,Y
1592407255.4,286047007.6,P
1592407275.2,286047003.2,N
1592407295.1,286047003.2,N
1592407296.0,286047003.2,N
1592407315.8,286047004.0,N
1592407335.7,286047004.1,N
1592407355.5,286047005.8,N
1592407375.3,286047003.4,N
1592407395.2,286047003.9,N
1592407415.0,286047004.4,N
1592407415.9,286047004.4,N
1592407435.8,286047001.9,N
1592407455.6,286047004.2,N
1592407475.4,286047004.4,N
1592407495.3,286047003.6,N
1592407515.1,286047003.2,N
1592407535.8,286047003.3,N
1592407555.7,286047001.4,N
1592407575.5,286047003.5,N
1592407595.4,286047003.8,N
1592407615.2,286047003.9,N
1592407635.0,286047006.0,Y
1592407635.9,286047006.0,P
1592407655.8,286046998.4,N
1592407675.6,286047000.8,N
1592407695.5,286047001.1,N
1592407715.3,286047001.0,N
1592407735.1,286047001.1,N
1592407755.9,286047001.1,N
1592407775.7,286047011.9,Y
1592407795.6,286046999.0,P
1592407815.4,286046999.2,N
1592407835.2,286046998.8,N
1592407855.1,286046999.6,N
1592407856.0,286046999.6,N
1592407875.8,286046998.3,N
1592407895.6,286046998.9,N
1592407915.5,286047001.0,N
1592407935.3,286046998.3,N
1592407955.2,286046998.4,N
1592407975.9,286046999.1,N
1592407995.7,286046998.3,N
1592408015.6,286046998.8,N
1592408035.4,286047001.2,N
1592408055.3,286047000.8,N
1592408075.1,286046998.2,N
1592408076.0,286046998.2,N
1592408095.8,286046999.0,N
1592408115.7,286046998.8,N
1592408135.5,286046998.2,N
1592408155.3,286046998.6,N
1592408175.2,286046996.7,Y
1592408195.0,286046998.8,P
1592408195.9,286046998.8,P
1592408215.8,286046998.4,P
1592408235.6,286046998.5,Y
1592408255.4,286047001.0,P
1592408275.3,286047000.0,N
1592408295.1,286047001.0,N
1592408315.9,286047002.3,N
1592408335.7,286047002.6,N
1592408355.5,286047002.0,N
1592408375.4,286047004.1,Y
1592408395.2,286047002.4,P
1592408415.1,286047000.7,N
1592408416.0,286047000.7,N
1592408435.8,286046998.2,N
1592408455.6,286046998.2,N
1592408475.5,286047000.9,N
1592408495.3,286047000.4,N
1592408515.1,286047001.1,N
1592408535.9,286046998.6,N
1592408555.7,286046998.2,N
1592408575.6,286047000.5,N
1592408595.4,286046998.2,N
1592408615.2,286047001.2,N
1592408635.1,286047000.5,N
1592408636.0,286047000.5,N
1592408655.8,286047000.3,N
1592408675.7,286047000.7,N
1592408695.5,286047000.5,N
1592408715.3,286047000.0,N
1592408735.2,286046999.8,N
1592408755.9,286047001.0,N
1592408775.7,286047000.5,N
1592408795.6,286046999.9,N
1592408815.4,286047002.6,N
1592408835.3,286047000.7,N
1592408855.1,286047001.2,N
1592408856.0,286047001.2,N
1592408875.8,286046998.5,N
1592408895.7,286047001.2,N
1592408915.5,286046998.4,N
1592408935.3,286046998.3,N
1592408955.2,286046998.9,N
1592408975.0,286046998.4,N
1592408975.9,286046998.4,N
1592408995.8,286046998.9,N
1592409015.6,286046998.3,N
1592409035.4,286047001.2,N
1592409055.3,286047000.6,N
1592409075.1,286047000.9,N
1592409095.9,286046998.2,N
1592409115.7,286047001.0,N
1592409135.5,286047000.9,N
1592409155.4,286047001.2,N
1592409175.2,286046998.5,N
1592409195.1,286046998.7,N
1592409196.0,286046998.7,N
1592409215.8,286046999.4,N
1592409235.6,286046999.4,N
1592409255.5,286046998.3,N
1592409275.3,286046998.4,N
1592409295.2,286047000.7,N
1592409315.9,286047001.2,N
1592409335.7,286047001.2,N
1592409355.6,286046998.1,N
1592409375.4,286046998.5,N
1592409395.2,286047001.2,N
1592409415.1,286046998.6,N
1592409416.0,286046998.6,N
1592409435.8,286047000.7,N
1592409455.7,286046998.7,N
1592409475.5,286046999.3,N
1592409495.3,286046999.4,N
1592409515.2,286046998.9,N
1592409535.0,286046998.4,N
1592409535.9,286046998.4,N
1592409555.8,286046998.7,N
1592409575.6,286046999.0,N
1592409595.4,286046999.0,N
